Marshfield, WI

8:53 AM CDT on August 25, 2016 (GMT -0500)
Marshfield Municipal

Weather History for KMFI - June, 2013

Change the Weather History Date:

Thursday, June 20, 2013

  Actual Average Record
Temperature  
Mean Temperature 70 °F -  
Max Temperature 82 °F 76 °F 96 °F (1988)
Min Temperature 57 °F 52 °F 37 °F (1992)
Cooling Degree Days 4    
Growing Degree Days 20 (Base 50)    
Moisture  
Dew Point 57 °F    
Average Humidity 63    
Maximum Humidity 89    
Minimum Humidity 42    
Precipitation  
Precipitation 0.00 in - - ()
Sea Level Pressure  
Sea Level Pressure 30.06 in    
Wind  
Wind Speed 6 mph (South)    
Max Wind Speed 16 mph    
Max Gust Speed 25 mph    
Visibility 10 miles    
Events      
Averages and records for this station are not official NWS values.
T = Trace of Precipitation, MM = Missing Value Source: NWS Daily Summary

Daily Weather History Graph

Daily Weather History Graph

Search for Another Location

Airport or City:

Trip Planner

Search our weather history database for the weather conditions in past years. The results will help you decide how hot, cold, wet, or windy it might be!

Date:

Astronomy

Jun. 20, 2013 Rise Set
Actual Time 5:15 AM CDT 8:49 PM CDT
Civil Twilight 4:38 AM CDT 9:26 PM CDT
Nautical Twilight 3:49 AM CDT 10:15 PM CDT
Astronomical Twilight 2:45 AM CDT 11:19 PM CDT
Moon 5:47 PM CDT (6/20) 2:47 AM CDT (6/20)
Length of Visible Light 16h 48m
Length of Day
15h 34m
Waxing Gibbous, 89% of the Moon is Illuminated
Jun 20
Waxing Gibbous
Jun 23
Full
Jun 29
Last Quarter
Jul 8
New
Jul 15
First Quarter

Hourly Weather History & Observations

Time (CDT) Temp. Heat Index Dew Point Humidity Pressure Visibility Wind Dir Wind Speed Gust Speed Precip Events Conditions
12:54 AM 61.0 °F - 55.0 °F 81% 30.07 in 10.0 mi Calm Calm - N/A   Clear
1:54 AM 59.0 °F - 55.0 °F 87% 30.07 in 10.0 mi SSE 4.6 mph - N/A   Partly Cloudy
2:54 AM 59.0 °F - 54.0 °F 83% 30.08 in 10.0 mi South 5.8 mph - N/A   Clear
3:54 AM 57.0 °F - 54.0 °F 89% 30.09 in 10.0 mi South 4.6 mph - N/A   Scattered Clouds
4:54 AM 57.0 °F - 54.0 °F 89% 30.09 in 10.0 mi South 5.8 mph - N/A   Scattered Clouds
5:54 AM 57.9 °F - 54.0 °F 87% 30.09 in 10.0 mi South 3.5 mph - N/A   Mostly Cloudy
6:54 AM 60.1 °F - 55.9 °F 86% 30.09 in 10.0 mi South 5.8 mph - N/A   Mostly Cloudy
7:54 AM 64.9 °F - 57.0 °F 75% 30.10 in 10.0 mi South 6.9 mph - N/A   Partly Cloudy
8:54 AM 71.1 °F - 59.0 °F 66% 30.10 in 10.0 mi South 9.2 mph - N/A   Partly Cloudy
9:54 AM 75.0 °F - 60.1 °F 60% 30.10 in 10.0 mi SSW 8.1 mph - N/A   Clear
10:54 AM 78.1 °F - 60.1 °F 54% 30.09 in 10.0 mi SSW 9.2 mph - N/A   Clear
11:54 AM 81.0 °F 81.3 °F 59.0 °F 47% 30.09 in 10.0 mi SSW 10.4 mph - N/A   Partly Cloudy
12:54 PM 82.0 °F 81.7 °F 57.0 °F 42% 30.08 in 10.0 mi SSW 16.1 mph 25.3 mph N/A   Partly Cloudy
1:54 PM 81.0 °F 81.3 °F 59.0 °F 47% 30.07 in 10.0 mi South 15.0 mph 21.9 mph N/A   Partly Cloudy
2:54 PM 79.0 °F - 59.0 °F 50% 30.08 in 10.0 mi SW 6.9 mph - 0.00 in   Overcast
3:54 PM 82.0 °F 82.0 °F 57.9 °F 44% 30.05 in 10.0 mi South 12.7 mph 20.7 mph N/A   Clear
4:54 PM 82.0 °F 82.4 °F 60.1 °F 47% 30.03 in 10.0 mi South 11.5 mph - N/A   Clear
5:54 PM 81.0 °F 81.3 °F 59.0 °F 47% 30.02 in 10.0 mi South 10.4 mph - N/A   Clear
6:54 PM 80.1 °F 80.7 °F 59.0 °F 48% 30.01 in 10.0 mi South 11.5 mph - N/A   Clear
7:54 PM 77.0 °F - 59.0 °F 54% 30.02 in 10.0 mi South 6.9 mph - N/A   Clear
8:54 PM 73.0 °F - 57.9 °F 59% 30.01 in 10.0 mi SSE 5.8 mph - N/A   Clear
9:54 PM 73.0 °F - 57.9 °F 59% 30.02 in 10.0 mi SSE 6.9 mph - N/A   Clear
10:54 PM 72.0 °F - 57.9 °F 61% 30.02 in 10.0 mi SSE 6.9 mph - N/A   Scattered Clouds
11:54 PM 73.0 °F - 59.0 °F 61% 30.04 in 10.0 mi SSE 8.1 mph - N/A   Mostly Cloudy